Weather History for PASO - February, 2014

Change the Weather History Date:

Sunday, February 9, 2014

  Actual Average (PAHO) Record (PAHO)
Temperature  
Mean Temperature 18 °F -  
Max Temperature 21 °F 32 °F 46 °F (1997)
Min Temperature 14 °F 20 °F -15 °F (1949)
Degree Days  
Heating Degree Days 48    
Moisture  
Dew Point 11 °F    
Average Humidity 76    
Maximum Humidity 92    
Minimum Humidity 60    
Precipitation  
Precipitation 0.00 in - - ()
Sea Level Pressure  
Sea Level Pressure 29.95 in    
Wind  
Wind Speed 3 mph (North)    
Max Wind Speed 12 mph    
Max Gust Speed -    
Visibility 10 miles    
Events      
Averages and records for this station are not official NWS values.
T = Trace of Precipitation, MM = Missing Value Source: NWS Daily Summary

Daily Weather History Graph

Daily Weather History Graph

Search for Another Location

Airport or City:

Trip Planner

Search our weather history database for the weather conditions in past years. The results will help you decide how hot, cold, wet, or windy it might be!

Date:

Astronomy

Feb. 09, 2014 Rise Set
Actual Time 8:57 AM AKST 5:45 PM AKST
Civil Twilight 8:13 AM AKST 6:29 PM AKST
Nautical Twilight 7:24 AM AKST 7:18 PM AKST
Astronomical Twilight 6:37 AM AKST 8:05 PM AKST
Moon 1:04 PM AKST (2/9) 5:39 AM AKST (2/9)
Length of Visible Light 10h 16m
Length of Day
8h 47m
Waxing Gibbous, 78% of the Moon is Illuminated
Feb 9
Waxing Gibbous
Feb 14
Full
Feb 22
Last Quarter
Feb 28
New
Mar 8
First Quarter

Hourly Weather History & Observations

Time (AKST) Temp. Windchill Dew Point Humidity Pressure Visibility Wind Dir Wind Speed Gust Speed Precip Events Conditions
12:53 AM 21.9 °F - 19.9 °F 92% 30.11 in 10.0 mi Calm Calm - N/A   Clear
1:53 AM 19.0 °F 13.9 °F 17.1 °F 92% 30.11 in 10.0 mi North 3.5 mph - N/A   Clear
3:53 AM 21.9 °F 12.5 °F 14.0 °F 72% 30.07 in 10.0 mi North 8.1 mph - N/A   Clear
4:53 AM 18.0 °F - 15.1 °F 88% 30.06 in 10.0 mi Calm Calm - N/A   Clear
5:53 AM 16.0 °F - 12.9 °F 88% 30.03 in 10.0 mi Calm Calm - N/A   Clear
6:53 AM 16.0 °F 10.4 °F 12.0 °F 84% 30.01 in 10.0 mi SSW 3.5 mph - N/A   Clear
7:53 AM 16.0 °F 8.8 °F 10.9 °F 81% 30.00 in 10.0 mi Variable 4.6 mph - N/A   Clear
8:53 AM 16.0 °F - 12.9 °F 88% 29.99 in 10.0 mi Calm Calm - N/A   Clear
9:53 AM 16.0 °F - 12.0 °F 84% 29.99 in 10.0 mi Calm Calm - N/A   Clear
10:53 AM 19.9 °F - 10.9 °F 68% 29.99 in 10.0 mi Calm Calm - N/A   Clear
11:53 AM 21.0 °F 10.6 °F 10.9 °F 65% 29.98 in 10.0 mi North 9.2 mph - N/A   Clear
12:53 PM 21.9 °F 14.5 °F 10.9 °F 63% 29.97 in 10.0 mi North 5.8 mph - N/A   Clear
1:53 PM 21.9 °F 10.4 °F 12.0 °F 66% 29.93 in 10.0 mi North 11.5 mph - N/A   Clear
2:53 PM 21.0 °F 11.4 °F 10.0 °F 63% 29.91 in 10.0 mi NNE 8.1 mph - N/A   Clear
3:53 PM 21.0 °F 9.9 °F 10.0 °F 63% 29.90 in 10.0 mi North 10.4 mph - N/A   Clear
4:53 PM 19.9 °F 10.1 °F 9.0 °F 62% 29.89 in 10.0 mi North 8.1 mph - N/A   Clear
5:53 PM 17.1 °F - 10.9 °F 77% 29.87 in 10.0 mi Calm Calm - N/A   Clear
6:53 PM 14.0 °F - 10.9 °F 88% 29.86 in 10.0 mi Calm Calm - N/A   Clear
7:53 PM 15.1 °F 9.4 °F 9.0 °F 77% 29.85 in 10.0 mi Variable 3.5 mph - N/A   Clear
8:53 PM 18.0 °F - 7.0 °F 62% 29.84 in 10.0 mi Calm Calm - N/A   Clear
9:53 PM 15.1 °F - 9.0 °F 77% 29.83 in 10.0 mi Calm Calm - N/A   Clear
10:53 PM 14.0 °F - 9.0 °F 80% 29.83 in 10.0 mi Calm Calm - N/A   Clear
11:53 PM 18.0 °F 12.7 °F 6.1 °F 60% 29.82 in 10.0 mi Variable 3.5 mph - N/A   Clear